QPF
0.00 0.00 0.01 0.01 0.01 0.01 0.01 0.01 0.01 0.01 0.00 0.00 0.00 0.00 0.00 0.00 0.00 0.01 0.01 0.00 0.00 0.00 0.01 0.01 0.01 0.01 0.01 0.01 0.00 0.01 0.01 0.01 0.01 0.01 0.01 0.01 0.01 0.01 0.01 0.00 0.00 0.01 0.01
0.00 0.00 0.01 0.01 0.01 0.01 0.01 0.01 0.01 0.01 0.00 0.01 0.01 0.01 0.01 0.00 0.00 0.00 0.00 0.00 0.00 0.01 0.01 0.01 0.01 0.01 0.01 0.00 0.00 0.00 0.00 0.01 0.01 0.00 0.00 0.01 0.01 0.01 0.01 0.01 0.01 0.02 0.02
0.00 0.00 0.01 0.01 0.01 0.02 0.02 0.02 0.01 0.01 0.01 0.01 0.01 0.01 0.01 0.01 0.01 0.01 0.00 0.01 0.01 0.01 0.01 0.01 0.01 0.01 0.00 0.00 0.00 0.00 0.01 0.01 0.00 0.00 0.00 0.00 0.01 0.01 0.01 0.02 0.02 0.02 0.02
0.00 0.00 0.00 0.01 0.01 0.02 0.03 0.02 0.02 0.02 0.02 0.01 0.01 0.01 0.01 0.01 0.01 0.01 0.01 0.01 0.01 0.01 0.01 0.01 0.01 0.00 0.00 0.00 0.00 0.00 0.00 0.00 0.00 0.00 0.00 0.00 0.01 0.02 0.02 0.02 0.02 0.01 0.01
0.00 0.00 0.00 0.01 0.01 0.02 0.03 0.04 0.05 0.04 0.03 0.02 0.01 0.01 0.02 0.02 0.02 0.01 0.01 0.01 0.01 0.01 0.01 0.01 0.00 0.00 0.00 0.00 0.00 0.00 0.00 0.00 0.00 0.00 0.00 0.00 0.01 0.02 0.02 0.01 0.01 0.01 0.01
0.00 0.00 0.01 0.01 0.02 0.03 0.03 0.05 0.06 0.07 0.06 0.04 0.03 0.02 0.02 0.02 0.02 0.02 0.02 0.01 0.01 0.01 0.01 0.00 0.00 0.00 0.00 0.00 0.00 0.00 0.00 0.00 0.00 0.00 0.00 0.00 0.01 0.02 0.01 0.01 0.01 0.01 0.01
0.00 0.00 0.01 0.01 0.02 0.03 0.04 0.05 0.06 0.08 0.10 0.09 0.07 0.04 0.03 0.03 0.03 0.02 0.02 0.02 0.01 0.01 0.01 0.00 0.00 0.00 0.00 0.00 0.00 0.00 0.00 0.00 0.00 0.00 0.00 0.00 0.01 0.01 0.01 0.01 0.01 0.01 0.00
0.00 0.01 0.01 0.02 0.02 0.03 0.04 0.05 0.06 0.08 0.11 0.13 0.10 0.07 0.05 0.04 0.04 0.03 0.03 0.03 0.02 0.01 0.01 0.01 0.00 0.00 0.00 0.00 0.00 0.00 0.00 0.00 0.00 0.00 0.00 0.00 0.01 0.01 0.02 0.01 0.01 0.00 0.00
0.01 0.01 0.01 0.02 0.04 0.04 0.05 0.06 0.07 0.09 0.11 0.14 0.13 0.10 0.09 0.06 0.04 0.04 0.04 0.03 0.02 0.01 0.01 0.01 0.00 0.00 0.00 0.00 0.00 0.00 0.00 0.00 0.00 0.00 0.00 0.00 0.01 0.02 0.01 0.01 0.00 0.00 0.00
0.02 0.02 0.02 0.04 0.05 0.06 0.06 0.08 0.08 0.09 0.10 0.13 0.15 0.14 0.12 0.08 0.06 0.05 0.03 0.03 0.02 0.02 0.01 0.01 0.00 0.00 0.00 0.00 0.00 0.00 0.00 0.00 0.00 0.00 0.00 0.00 0.01 0.01 0.01 0.00 0.00 0.00 0.00
0.03 0.03 0.03 0.05 0.06 0.06 0.06 0.08 0.09 0.09 0.10 0.11 0.14 0.15 0.15 0.13 0.08 0.05 0.03 0.02 0.02 0.02 0.01 0.01 0.01 0.00 0.00 0.00 0.00 0.00 0.00 0.00 0.00 0.00 0.00 0.00 0.00 0.00 0.00 0.00 0.00 0.00 0.00
0.04 0.03 0.04 0.05 0.06 0.07 0.07 0.08 0.09 0.10 0.10 0.11 0.11 0.13 0.13 0.11 0.08 0.05 0.03 0.02 0.02 0.02 0.01 0.01 0.01 0.00 0.00 0.00 0.00 0.00 0.00 0.00 0.00 0.00 0.00 0.00 0.00 0.00 0.00 0.00 0.00 0.00 0.00
0.06 0.04 0.03 0.05 0.07 0.07 0.08 0.07 0.09 0.10 0.10 0.10 0.10 0.12 0.12 0.11 0.09 0.06 0.04 0.03 0.02 0.02 0.01 0.01 0.01 0.00 0.00 0.00 0.00 0.00 0.00 0.00 0.00 0.00 0.00 0.00 0.00 0.00 0.00 0.00 0.00 0.00 0.00
0.09 0.06 0.04 0.05 0.07 0.08 0.09 0.08 0.08 0.10 0.11 0.10 0.09 0.10 0.12 0.11 0.08 0.06 0.03 0.02 0.01 0.01 0.01 0.01 0.00 0.00 0.00 0.00 0.00 0.00 0.00 0.00 0.00 0.00 0.00 0.00 0.00 0.00 0.01 0.01 0.00 0.00 0.00
0.09 0.08 0.05 0.05 0.06 0.08 0.10 0.10 0.09 0.10 0.11 0.10 0.10 0.10 0.10 0.11 0.10 0.07 0.04 0.02 0.01 0.01 0.01 0.00 0.00 0.00 0.00 0.00 0.00 0.00 0.00 0.00 0.00 0.00 0.00 0.00 0.00 0.00 0.00 0.01 0.00 0.00 0.00
0.09 0.09 0.07 0.06 0.06 0.08 0.09 0.11 0.10 0.10 0.10 0.12 0.11 0.11 0.11 0.11 0.10 0.08 0.04 0.02 0.01 0.01 0.00 0.00 0.00 0.00 0.00 0.00 0.00 0.00 0.00 0.00 0.00 0.00 0.00 0.00 0.00 0.00 0.00 0.00 0.00 0.00 0.00
0.08 0.11 0.09 0.08 0.08 0.08 0.09 0.12 0.12 0.10 0.10 0.13 0.14 0.14 0.13 0.13 0.11 0.09 0.06 0.02 0.01 0.01 0.00 0.00 0.00 0.00 0.00 0.00 0.00 0.00 0.00 0.00 0.00 0.00 0.00 0.00 0.00 0.00 0.00 0.00 0.00 0.00 0.00
0.07 0.11 0.12 0.10 0.10 0.10 0.11 0.12 0.13 0.12 0.10 0.11 0.15 0.16 0.16 0.15 0.13 0.10 0.08 0.03 0.01 0.01 0.00 0.00 0.00 0.00 0.00 0.00 0.00 0.00 0.00 0.00 0.00 0.00 0.00 0.00 0.00 0.00 0.00 0.00 0.00 0.00 0.00
0.07 0.12 0.13 0.11 0.09 0.11 0.13 0.16 0.14 0.13 0.13 0.11 0.14 0.17 0.18 0.20 0.16 0.11 0.09 0.06 0.02 0.01 0.00 0.00 0.00 0.00 0.00 0.00 0.00 0.00 0.00 0.00 0.00 0.00 0.00 0.00 0.00 0.00 0.00 0.00 0.00 0.00 0.00
0.06 0.11 0.14 0.12 0.10 0.13 0.15 0.18 0.19 0.15 0.16 0.15 0.14 0.17 0.20 0.22 0.21 0.17 0.12 0.09 0.05 0.02 0.01 0.00 0.00 0.00 0.00 0.00 0.00 0.00 0.00 0.00 0.00 0.00 0.00 0.00 0.00 0.00 0.00 0.00 0.00 0.00 0.00
0.07 0.09 0.13 0.12 0.11 0.15 0.15 0.16 0.18 0.19 0.17 0.17 0.14 0.16 0.20 0.23 0.25 0.23 0.18 0.13 0.09 0.04 0.02 0.01 0.00 0.00 0.00 0.00 0.00 0.00 0.00 0.00 0.00 0.00 0.00 0.00 0.00 0.00 0.00 0.00 0.00 0.00 0.00
0.07 0.09 0.11 0.12 0.09 0.12 0.13 0.14 0.16 0.18 0.19 0.18 0.15 0.15 0.18 0.22 0.23 0.26 0.24 0.18 0.11 0.07 0.03 0.01 0.00 0.00 0.00 0.00 0.00 0.00 0.00 0.00 0.00 0.00 0.00 0.00 0.00 0.00 0.00 0.00 0.00 0.00 0.00
0.07 0.09 0.10 0.13 0.10 0.11 0.13 0.15 0.17 0.19 0.22 0.23 0.19 0.16 0.18 0.20 0.21 0.21 0.21 0.21 0.17 0.11 0.06 0.03 0.00 0.00 0.00 0.00 0.00 0.00 0.00 0.00 0.00 0.00 0.00 0.00 0.00 0.00 0.00 0.00 0.00 0.00 0.00
0.07 0.10 0.11 0.13 0.14 0.13 0.15 0.14 0.14 0.15 0.19 0.20 0.19 0.17 0.18 0.22 0.21 0.19 0.17 0.18 0.17 0.14 0.10 0.06 0.03 0.01 0.00 0.00 0.00 0.00 0.00 0.00 0.00 0.00 0.00 0.00 0.00 0.00 0.00 0.00 0.00 0.00 0.00
0.07 0.09 0.11 0.12 0.16 0.18 0.18 0.16 0.12 0.12 0.14 0.17 0.19 0.18 0.17 0.22 0.24 0.21 0.16 0.13 0.14 0.13 0.09 0.07 0.06 0.03 0.01 0.00 0.00 0.00 0.00 0.00 0.00 0.00 0.00 0.00 0.00 0.00 0.00 0.00 0.00 0.00 0.00
0.07 0.08 0.09 0.12 0.13 0.17 0.20 0.21 0.15 0.12 0.13 0.17 0.20 0.19 0.15 0.19 0.25 0.24 0.18 0.12 0.10 0.11 0.09 0.07 0.05 0.04 0.02 0.01 0.00 0.00 0.00 0.00 0.00 0.00 0.00 0.00 0.00 0.00 0.00 0.00 0.00 0.00 0.00
MSLP
1008.08 1007.71 1007.50 1007.46 1007.56 1007.74 1007.94 1008.10 1008.19 1008.20 1008.16 1008.13 1008.16 1008.31 1008.59 1008.98 1009.45 1009.95 1010.41 1010.80 1011.10 1011.31 1011.47 1011.61 1011.76 1011.93 1012.14 1012.35 1012.57 1012.75 1012.89 1013.00 1013.09 1013.16 1013.23 1013.32 1013.42 1013.53 1013.63 1013.72 1013.78 1013.84 1013.88
1008.04 1007.69 1007.49 1007.45 1007.54 1007.72 1007.93 1008.10 1008.22 1008.28 1008.29 1008.32 1008.41 1008.59 1008.88 1009.26 1009.70 1010.15 1010.56 1010.90 1011.16 1011.35 1011.50 1011.64 1011.79 1011.98 1012.19 1012.41 1012.62 1012.81 1012.97 1013.09 1013.19 1013.29 1013.40 1013.51 1013.64 1013.76 1013.87 1013.96 1014.04 1014.10 1014.16
1007.82 1007.49 1007.29 1007.25 1007.35 1007.54 1007.77 1007.98 1008.16 1008.29 1008.39 1008.49 1008.64 1008.85 1009.15 1009.51 1009.91 1010.29 1010.64 1010.91 1011.13 1011.29 1011.44 1011.59 1011.77 1011.98 1012.22 1012.46 1012.69 1012.90 1013.07 1013.22 1013.35 1013.47 1013.61 1013.75 1013.90 1014.03 1014.15 1014.25 1014.33 1014.41 1014.48
1007.52 1007.19 1006.99 1006.95 1007.05 1007.25 1007.50 1007.76 1008.00 1008.21 1008.39 1008.57 1008.78 1009.04 1009.35 1009.69 1010.03 1010.35 1010.63 1010.85 1011.03 1011.19 1011.35 1011.53 1011.74 1011.99 1012.27 1012.54 1012.79 1013.02 1013.22 1013.39 1013.54 1013.70 1013.86 1014.02 1014.18 1014.32 1014.45 1014.55 1014.64 1014.72 1014.81
1007.25 1006.91 1006.71 1006.65 1006.74 1006.93 1007.19 1007.47 1007.75 1008.02 1008.27 1008.53 1008.80 1009.10 1009.42 1009.75 1010.07 1010.34 1010.57 1010.76 1010.92 1011.08 1011.27 1011.48 1011.74 1012.04 1012.35 1012.66 1012.94 1013.19 1013.41 1013.60 1013.77 1013.95 1014.12 1014.29 1014.46 1014.60 1014.72 1014.82 1014.91 1015.00 1015.10
1007.11 1006.76 1006.53 1006.45 1006.51 1006.66 1006.89 1007.16 1007.44 1007.73 1008.03 1008.34 1008.67 1009.02 1009.38 1009.71 1010.02 1010.28 1010.49 1010.67 1010.84 1011.02 1011.23 1011.49 1011.80 1012.15 1012.49 1012.83 1013.13 1013.39 1013.61 1013.82 1014.00 1014.18 1014.36 1014.53 1014.69 1014.83 1014.94 1015.04 1015.13 1015.22 1015.34
1007.17 1006.79 1006.54 1006.42 1006.41 1006.51 1006.66 1006.87 1007.11 1007.39 1007.69 1008.04 1008.42 1008.82 1009.22 1009.59 1009.92 1010.19 1010.41 1010.61 1010.79 1011.01 1011.26 1011.57 1011.92 1012.29 1012.67 1013.02 1013.33 1013.59 1013.82 1014.02 1014.20 1014.38 1014.55 1014.72 1014.88 1015.01 1015.11 1015.20 1015.29 1015.40 1015.53
1007.40 1007.01 1006.73 1006.56 1006.48 1006.48 1006.54 1006.65 1006.80 1007.03 1007.31 1007.67 1008.08 1008.53 1008.98 1009.41 1009.79 1010.10 1010.36 1010.59 1010.80 1011.05 1011.34 1011.68 1012.06 1012.46 1012.84 1013.20 1013.50 1013.76 1013.97 1014.16 1014.34 1014.52 1014.69 1014.86 1015.01 1015.14 1015.24 1015.33 1015.42 1015.53 1015.67
1007.74 1007.35 1007.05 1006.83 1006.68 1006.58 1006.52 1006.50 1006.55 1006.69 1006.93 1007.28 1007.72 1008.21 1008.72 1009.22 1009.65 1010.02 1010.33 1010.59 1010.84 1011.11 1011.43 1011.79 1012.18 1012.59 1012.97 1013.32 1013.62 1013.86 1014.07 1014.25 1014.42 1014.60 1014.78 1014.95 1015.10 1015.23 1015.34 1015.44 1015.54 1015.66 1015.81
1008.08 1007.70 1007.39 1007.14 1006.92 1006.72 1006.55 1006.42 1006.36 1006.41 1006.59 1006.91 1007.36 1007.89 1008.46 1009.01 1009.51 1009.93 1010.28 1010.59 1010.87 1011.16 1011.49 1011.86 1012.26 1012.66 1013.04 1013.37 1013.66 1013.90 1014.09 1014.27 1014.45 1014.63 1014.81 1014.99 1015.16 1015.30 1015.43 1015.54 1015.65 1015.78 1015.93
1008.31 1007.95 1007.65 1007.39 1007.12 1006.85 1006.59 1006.35 1006.19 1006.15 1006.28 1006.57 1007.01 1007.57 1008.17 1008.78 1009.33 1009.81 1010.20 1010.54 1010.85 1011.16 1011.49 1011.86 1012.25 1012.65 1013.02 1013.35 1013.64 1013.87 1014.07 1014.25 1014.43 1014.61 1014.81 1015.01 1015.20 1015.36 1015.50 1015.63 1015.76 1015.89 1016.06
1008.36 1008.03 1007.75 1007.49 1007.21 1006.89 1006.55 1006.24 1006.00 1005.89 1005.95 1006.21 1006.64 1007.21 1007.84 1008.48 1009.08 1009.60 1010.04 1010.41 1010.74 1011.07 1011.41 1011.79 1012.18 1012.58 1012.95 1013.28 1013.57 1013.80 1014.01 1014.19 1014.38 1014.58 1014.78 1015.00 1015.20 1015.39 1015.55 1015.70 1015.84 1015.99 1016.16
1008.21 1007.91 1007.66 1007.40 1007.11 1006.77 1006.39 1006.02 1005.72 1005.55 1005.57 1005.79 1006.20 1006.76 1007.41 1008.08 1008.72 1009.28 1009.76 1010.17 1010.54 1010.89 1011.26 1011.65 1012.05 1012.46 1012.85 1013.19 1013.49 1013.73 1013.94 1014.13 1014.32 1014.52 1014.73 1014.95 1015.17 1015.38 1015.56 1015.73 1015.89 1016.04 1016.21
1007.92 1007.63 1007.38 1007.13 1006.83 1006.47 1006.07 1005.66 1005.31 1005.10 1005.07 1005.24 1005.62 1006.17 1006.82 1007.51 1008.18 1008.79 1009.33 1009.80 1010.22 1010.62 1011.03 1011.46 1011.90 1012.33 1012.74 1013.11 1013.42 1013.67 1013.89 1014.07 1014.26 1014.44 1014.65 1014.86 1015.09 1015.30 1015.51 1015.70 1015.87 1016.03 1016.20
1007.57 1007.27 1007.01 1006.73 1006.41 1006.03 1005.59 1005.15 1004.76 1004.49 1004.40 1004.53 1004.87 1005.39 1006.03 1006.74 1007.46 1008.13 1008.74 1009.29 1009.80 1010.28 1010.76 1011.24 1011.72 1012.20 1012.65 1013.04 1013.37 1013.64 1013.85 1014.03 1014.19 1014.36 1014.54 1014.74 1014.96 1015.18 1015.39 1015.60 1015.79 1015.96 1016.13
1007.28 1006.92 1006.61 1006.29 1005.92 1005.49 1005.01 1004.51 1004.07 1003.74 1003.58 1003.65 1003.93 1004.41 1005.04 1005.77 1006.53 1007.28 1007.99 1008.65 1009.27 1009.85 1010.42 1010.98 1011.53 1012.06 1012.55 1012.97 1013.33 1013.60 1013.82 1013.99 1014.13 1014.27 1014.42 1014.59 1014.79 1015.00 1015.22 1015.44 1015.65 1015.84 1016.01
1007.12 1006.70 1006.30 1005.90 1005.45 1004.94 1004.39 1003.83 1003.31 1002.90 1002.66 1002.64 1002.85 1003.28 1003.89 1004.63 1005.45 1006.29 1007.11 1007.90 1008.64 1009.35 1010.03 1010.68 1011.30 1011.89 1012.42 1012.88 1013.26 1013.56 1013.78 1013.95 1014.07 1014.18 1014.30 1014.44 1014.61 1014.81 1015.03 1015.26 1015.48 1015.69 1015.86
1007.13 1006.62 1006.12 1005.61 1005.07 1004.47 1003.83 1003.18 1002.58 1002.07 1001.72 1001.60 1001.72 1002.08 1002.65 1003.40 1004.27 1005.20 1006.14 1007.06 1007.94 1008.77 1009.56 1010.30 1010.99 1011.64 1012.21 1012.71 1013.13 1013.46 1013.70 1013.87 1013.99 1014.09 1014.18 1014.29 1014.44 1014.62 1014.83 1015.07 1015.30 1015.52 1015.71
1007.30 1006.70 1006.09 1005.47 1004.82 1004.13 1003.40 1002.66 1001.96 1001.34 1000.88 1000.64 1000.65 1000.92 1001.45 1002.19 1003.09 1004.09 1005.13 1006.17 1007.17 1008.12 1009.01 1009.83 1010.58 1011.27 1011.89 1012.44 1012.90 1013.26 1013.54 1013.74 1013.88 1013.98 1014.07 1014.16 1014.29 1014.45 1014.65 1014.88 1015.12 1015.34 1015.54
1007.55 1006.88 1006.18 1005.47 1004.73 1003.96 1003.15 1002.33 1001.53 1000.81 1000.24 999.88 999.77 999.94 1000.39 1001.09 1001.99 1003.04 1004.16 1005.29 1006.39 1007.42 1008.38 1009.25 1010.05 1010.78 1011.44 1012.02 1012.53 1012.95 1013.29 1013.55 1013.73 1013.86 1013.96 1014.05 1014.16 1014.30 1014.48 1014.69 1014.92 1015.14 1015.34
1007.81 1007.09 1006.34 1005.57 1004.77 1003.94 1003.09 1002.21 1001.35 1000.54 999.86 999.38 999.15 999.20 999.56 1000.20 1001.07 1002.12 1003.28 1004.46 1005.61 1006.70 1007.70 1008.60 1009.42 1010.16 1010.84 1011.47 1012.03 1012.52 1012.93 1013.27 1013.52 1013.70 1013.83 1013.93 1014.03 1014.15 1014.29 1014.47 1014.68 1014.89 1015.08
1008.00 1007.27 1006.49 1005.70 1004.89 1004.05 1003.19 1002.30 1001.40 1000.54 999.78 999.19 998.84 998.77 999.01 999.56 1000.37 1001.39 1002.53 1003.72 1004.89 1005.99 1006.99 1007.89 1008.71 1009.45 1010.15 1010.79 1011.41 1011.97 1012.46 1012.88 1013.22 1013.47 1013.64 1013.76 1013.86 1013.95 1014.07 1014.21 1014.37 1014.55 1014.72
1008.07 1007.35 1006.59 1005.81 1005.03 1004.23 1003.40 1002.54 1001.66 1000.78 999.96 999.28 998.82 998.62 998.74 999.18 999.90 1000.84 1001.94 1003.10 1004.24 1005.32 1006.30 1007.17 1007.96 1008.69 1009.38 1010.04 1010.69 1011.31 1011.89 1012.40 1012.82 1013.14 1013.37 1013.52 1013.62 1013.69 1013.77 1013.86 1013.98 1014.12 1014.27
1008.00 1007.32 1006.60 1005.87 1005.14 1004.41 1003.66 1002.86 1002.02 1001.15 1000.31 999.57 999.01 998.70 998.69 999.00 999.61 1000.46 1001.48 1002.58 1003.67 1004.71 1005.64 1006.48 1007.23 1007.92 1008.59 1009.26 1009.93 1010.60 1011.24 1011.82 1012.32 1012.72 1013.00 1013.18 1013.29 1013.35 1013.40 1013.45 1013.52 1013.62 1013.75
1007.85 1007.20 1006.52 1005.85 1005.20 1004.56 1003.89 1003.18 1002.40 1001.56 1000.72 999.93 999.29 998.88 998.74 998.93 999.41 1000.16 1001.09 1002.12 1003.16 1004.14 1005.03 1005.82 1006.53 1007.19 1007.83 1008.48 1009.16 1009.85 1010.53 1011.17 1011.73 1012.19 1012.53 1012.75 1012.88 1012.94 1012.97 1012.99 1013.04 1013.12 1013.22
1007.65 1007.03 1006.39 1005.77 1005.19 1004.62 1004.05 1003.41 1002.70 1001.91 1001.07 1000.26 999.55 999.04 998.79 998.86 999.22 999.86 1000.71 1001.66 1002.64 1003.58 1004.43 1005.19 1005.87 1006.49 1007.10 1007.74 1008.41 1009.10 1009.80 1010.48 1011.09 1011.59 1011.98 1012.25 1012.41 1012.49 1012.53 1012.55 1012.59 1012.66 1012.77
Thickness
5776 5779 5780 5778 5777 5776 5775 5774 5773 5772 5771 5770 5768 5767 5766 5765 5764 5762 5760 5759 5757 5755 5753 5751 5750 5748 5746 5745 5743 5741 5739 5738 5736 5734 5733 5732 5730 5728 5726 5724 5722 5721 5720
5779 5778 5777 5775 5774 5773 5772 5771 5770 5768 5767 5766 5765 5764 5763 5762 5760 5759 5757 5756 5754 5752 5750 5748 5746 5745 5743 5741 5739 5738 5736 5734 5732 5730 5729 5728 5727 5725 5723 5721 5719 5718 5716
5775 5775 5774 5772 5771 5769 5769 5768 5767 5765 5764 5763 5762 5761 5759 5758 5757 5756 5754 5752 5751 5749 5747 5745 5743 5741 5740 5738 5736 5735 5733 5730 5728 5726 5725 5724 5723 5722 5720 5718 5716 5714 5712
5770 5769 5769 5768 5767 5766 5765 5764 5764 5762 5761 5760 5758 5757 5756 5755 5754 5752 5751 5749 5747 5745 5743 5741 5740 5738 5736 5735 5733 5731 5729 5727 5725 5723 5721 5720 5719 5718 5716 5714 5713 5710 5708
5762 5763 5763 5763 5762 5761 5760 5760 5759 5758 5757 5756 5755 5753 5752 5751 5750 5749 5747 5746 5744 5742 5740 5738 5736 5734 5732 5731 5729 5728 5726 5724 5721 5719 5718 5717 5716 5715 5713 5710 5708 5706 5704
5754 5756 5757 5757 5756 5756 5756 5755 5755 5754 5753 5752 5751 5750 5748 5747 5746 5745 5743 5742 5740 5738 5736 5734 5732 5730 5729 5727 5725 5724 5722 5720 5717 5716 5714 5713 5712 5711 5709 5706 5704 5702 5700
5746 5748 5749 5750 5750 5750 5750 5750 5750 5749 5748 5748 5747 5746 5744 5743 5742 5741 5739 5738 5736 5734 5732 5730 5728 5726 5725 5723 5722 5720 5718 5716 5714 5712 5711 5710 5709 5707 5705 5703 5700 5698 5696
5738 5740 5741 5742 5743 5743 5744 5744 5744 5744 5743 5743 5742 5741 5740 5739 5738 5737 5735 5733 5732 5730 5728 5727 5725 5723 5721 5719 5718 5716 5714 5712 5710 5708 5707 5706 5705 5703 5701 5699 5696 5694 5692
5729 5731 5733 5734 5734 5735 5737 5738 5738 5738 5738 5737 5737 5736 5735 5734 5733 5732 5731 5729 5728 5726 5724 5723 5721 5719 5717 5715 5714 5712 5710 5708 5706 5704 5703 5702 5701 5699 5697 5695 5692 5690 5687
5718 5721 5723 5725 5726 5727 5728 5730 5731 5731 5731 5731 5731 5731 5730 5729 5728 5727 5726 5725 5723 5722 5720 5719 5717 5715 5713 5711 5709 5708 5706 5704 5702 5700 5700 5699 5697 5695 5693 5690 5688 5686 5683
5706 5710 5712 5715 5717 5719 5720 5722 5723 5724 5724 5724 5724 5724 5724 5723 5722 5721 5721 5720 5718 5717 5716 5714 5713 5711 5709 5707 5705 5703 5701 5700 5698 5697 5696 5695 5693 5691 5689 5686 5684 5681 5679
5695 5699 5702 5706 5708 5710 5711 5713 5714 5715 5716 5717 5717 5718 5717 5718 5717 5716 5715 5714 5713 5712 5711 5709 5708 5707 5704 5703 5701 5699 5697 5695 5694 5693 5692 5691 5689 5687 5685 5682 5679 5677 5674
5685 5689 5694 5696 5698 5700 5702 5703 5705 5706 5708 5709 5710 5711 5710 5710 5710 5709 5708 5708 5707 5707 5705 5704 5703 5702 5700 5698 5696 5695 5693 5691 5689 5689 5688 5687 5685 5683 5681 5678 5675 5673 5670
5674 5679 5683 5686 5688 5690 5692 5694 5696 5698 5699 5700 5702 5703 5703 5703 5703 5703 5703 5703 5702 5702 5700 5699 5698 5696 5695 5693 5692 5690 5688 5687 5685 5685 5684 5682 5681 5679 5677 5674 5672 5668 5665
5664 5669 5674 5677 5679 5681 5682 5684 5687 5689 5691 5692 5694 5696 5697 5697 5697 5697 5697 5697 5697 5697 5695 5694 5692 5691 5690 5688 5687 5686 5684 5683 5681 5680 5679 5678 5676 5674 5673 5670 5668 5664 5661
5655 5659 5663 5667 5670 5672 5673 5675 5678 5680 5682 5684 5687 5688 5690 5691 5691 5691 5692 5692 5692 5692 5691 5689 5687 5686 5685 5684 5682 5681 5680 5679 5677 5676 5675 5674 5672 5670 5668 5666 5663 5660 5657
5645 5650 5653 5658 5661 5662 5664 5666 5668 5671 5673 5676 5679 5681 5683 5684 5685 5685 5687 5687 5687 5687 5685 5683 5681 5681 5679 5678 5677 5677 5676 5674 5673 5672 5671 5669 5667 5665 5663 5661 5659 5656 5653
5636 5639 5643 5648 5651 5652 5655 5657 5659 5662 5665 5668 5671 5674 5676 5678 5680 5680 5680 5683 5683 5682 5680 5678 5676 5675 5674 5673 5672 5671 5671 5670 5669 5668 5666 5665 5663 5661 5659 5657 5654 5651 5648
5627 5630 5633 5637 5640 5642 5646 5648 5650 5653 5656 5660 5663 5667 5669 5672 5675 5675 5675 5676 5678 5677 5675 5674 5671 5671 5669 5667 5666 5665 5665 5665 5664 5663 5662 5661 5659 5657 5654 5652 5649 5646 5643
5617 5621 5622 5627 5631 5633 5636 5638 5641 5644 5648 5651 5656 5660 5663 5665 5668 5669 5670 5670 5672 5672 5670 5669 5667 5666 5664 5662 5661 5660 5659 5659 5660 5659 5658 5656 5655 5653 5650 5647 5644 5641 5637
5607 5610 5614 5618 5621 5623 5625 5628 5631 5635 5640 5644 5648 5654 5657 5660 5662 5664 5665 5665 5666 5667 5667 5665 5663 5660 5658 5656 5653 5650 5651 5653 5654 5654 5653 5652 5650 5648 5646 5643 5640 5636 5632
5597 5603 5606 5608 5612 5615 5619 5622 5626 5630 5633 5637 5641 5647 5652 5654 5656 5658 5660 5661 5662 5662 5661 5660 5659 5656 5653 5652 5650 5645 5643 5644 5648 5650 5649 5647 5646 5644 5641 5639 5635 5631 5628
5589 5593 5598 5601 5604 5607 5611 5614 5616 5619 5623 5627 5632 5639 5645 5648 5651 5654 5656 5657 5657 5659 5658 5657 5656 5653 5650 5646 5648 5645 5640 5640 5640 5643 5643 5643 5642 5639 5637 5634 5631 5627 5623
5581 5586 5590 5593 5596 5600 5603 5606 5609 5613 5617 5623 5627 5633 5638 5642 5645 5648 5650 5652 5652 5653 5654 5653 5652 5651 5648 5644 5642 5642 5642 5641 5637 5635 5636 5637 5636 5634 5632 5629 5626 5622 5618
5574 5578 5581 5585 5588 5592 5596 5600 5604 5608 5612 5616 5620 5625 5631 5635 5638 5641 5644 5647 5648 5648 5650 5649 5647 5646 5645 5643 5640 5637 5636 5634 5634 5631 5630 5630 5629 5629 5627 5624 5621 5617 5613
5566 5570 5573 5576 5581 5585 5588 5593 5598 5602 5606 5609 5613 5619 5624 5628 5632 5635 5638 5642 5644 5644 5645 5645 5644 5643 5641 5640 5638 5636 5634 5632 5629 5627 5625 5623 5622 5622 5621 5619 5615 5612 5608